[[{"header":{"parameterUnit":"m.s-1","parameterCategory":1,"la1":30.2992,"la2":30.254,"lo1":-89.0895,"lo2":-89.0443,"dy":0.0025,"dx":0.0025,"nx":19,"ny":19,"refTime":"2026-04-24T21:00:00:Z","depth":0,"parameterNumber":2,"parameterNumberName":"U-component_of_WINDS"},"data":[0,0,0,-2.094,-2.0942,-2.1028,-2.1029,-2.1132,-2.1133,0,0,0,0,0,0,0,0,0,0,0,-2.091,-2.0911,-2.094,-2.0942,-2.1028,-2.1029,-2.1132,-2.1133,0,0,0,0,0,0,0,0,0,0,0,-2.091,-2.0911,-2.0911,-2.0942,-2.1028,-2.1029,-2.1131,-2.1069,0,0,0,0,0,0,0,0,0,0,-2.0986,-2.0954,-2.091,-2.0911,-2.0943,-2.1028,-2.1029,-2.1066,-2.1073,-2.1089,0,-2.1103,0,-2.1119,-2.1139,-2.1139,0,0,0,-2.0946,-2.0948,-2.0976,-2.0911,-2.0944,-2.1028,-2.099,-2.107,-2.1078,-2.1098,-2.1105,-2.1109,-2.1121,-2.114,-2.114,-2.1225,-2.1225,0,0,-2.0941,-2.0923,-2.097,-2.0981,-2.0967,-2.0988,-2.0993,-2.1075,-2.108,-2.1105,-2.1111,-2.1123,-2.114,-2.1141,-2.1225,-2.1225,0,0,0,-2.0925,-2.092,-2.0945,-2.0976,-2.0992,-2.099,-2.0996,-2.1077,-2.1086,-2.1112,-2.1124,-2.1141,-2.1142,-2.1224,-2.1225,-2.1218,0,0,0,-2.0922,-2.091,-2.0943,-2.0933,-2.0991,-2.1035,-2.0996,-2.1081,-2.1091,-2.1124,-2.1141,-2.1143,-2.1224,-2.1224,-2.1218,-2.1218,0,0,0,-2.0906,-2.0909,-2.092,-2.0932,-2.0969,-2.1035,-2.1049,-2.1083,-2.1098,-2.1139,-2.1143,-2.1224,-2.1224,-2.1218,-2.1218,-2.1234,0,0,0,-2.0884,-2.0913,-2.0919,-2.0957,-2.0968,-2.103,-2.1049,-2.1097,-2.1132,-2.1141,-2.1224,-2.1225,-2.1218,-2.1217,-2.1234,-2.1244,-2.1247,0,0,-2.0911,-2.0916,-2.0939,-2.0947,-2.1004,-2.1019,-2.1075,-2.1124,-2.1145,-2.1197,-2.1199,-2.1218,-2.1218,-2.1234,-2.1273,-2.1275,0,0,0,-2.0942,-2.0958,-2.0977,-2.101,-2.1048,-2.1081,-2.1124,-2.1142,-2.1187,-2.1168,-2.123,-2.123,-2.1241,-2.1247,-2.1249,-2.1258,-2.1227,-2.1227,-2.1227,-2.0954,-2.0979,-2.1019,-2.1054,-2.1085,-2.1129,-2.1157,-2.1189,-2.1204,-2.1219,-2.1234,-2.1254,-2.1261,-2.1262,-2.1272,-2.1243,-2.1243,-2.1243,-2.1243,-2.0995,-2.1022,-2.1042,-2.1088,-2.1114,-2.1153,-2.1197,-2.1206,-2.1246,-2.1245,-2.1256,-2.125,-2.1264,-2.1274,-2.1242,-2.1243,-2.1243,-2.1243,-2.1243,-2.1004,-2.1021,-2.1043,-2.1093,-2.1129,-2.1164,-2.1202,-2.1224,-2.1246,-2.1256,-2.1274,-2.1274,-2.1276,-2.1264,-2.1264,-2.1264,-2.1264,-2.1264,-2.1264,-2.1005,-2.103,-2.1059,-2.1102,-2.1126,-2.1161,-2.1205,-2.123,-2.1262,-2.1276,-2.1276,-2.129,-2.1261,-2.1253,-2.1265,-2.1265,-2.1265,-2.1265,-2.1265,-2.1035,-2.1032,-2.1076,-2.11,-2.1153,-2.1186,-2.1216,-2.1263,-2.1287,-2.1304,-2.1317,-2.1292,-2.1298,-2.1297,-2.129,-2.1312,-2.1312,-2.1312,-2.1312,-2.1042,-2.1048,-2.1098,-2.1134,-2.1173,-2.1204,-2.1253,-2.1288,-2.1324,-2.1341,-2.1341,-2.1335,-2.1332,-2.134,-2.1338,-2.1331,-2.1363,-2.1363,-2.1363,-2.1061,-2.1072,-2.1109,-2.1144,-2.1187,-2.1224,-2.127,-2.1312,-2.1352,-2.1366,-2.1353,-2.1351,-2.1341,-2.1336,-2.1347,-2.1343,-2.1332,0,0]},{"header":{"parameterUnit":"m.s-1","parameterCategory":1,"la1":30.2992,"la2":30.254,"lo1":-89.0895,"lo2":-89.0443,"dy":0.0025,"dx":0.0025,"nx":19,"ny":19,"refTime":"2026-04-24T21:00:00:Z","depth":0,"parameterNumber":3,"parameterNumberName":"V-component_of_WINDS"},"data":[0,0,0,4.5618,4.5618,4.5601,4.5601,4.5573,4.5573,0,0,0,0,0,0,0,0,0,0,0,4.5622,4.5622,4.5618,4.5618,4.5601,4.5601,4.5573,4.5573,0,0,0,0,0,0,0,0,0,0,0,4.5622,4.5622,4.5622,4.5618,4.5601,4.5601,4.5573,4.5588,0,0,0,0,0,0,0,0,0,0,4.5605,4.5607,4.5622,4.5622,4.5618,4.5601,4.5601,4.5588,4.5587,4.5579,0,4.5574,0,4.5573,4.5571,4.5571,0,0,0,4.5618,4.5609,4.5606,4.5622,4.5618,4.5601,4.5609,4.5588,4.5586,4.5577,4.5574,4.5573,4.5573,4.5571,4.557,4.5533,4.5533,0,0,4.5619,4.5617,4.5607,4.5605,4.5609,4.5609,4.5608,4.5586,4.5581,4.5573,4.5572,4.5572,4.557,4.557,4.5533,4.5533,0,0,0,4.5622,4.5618,4.5616,4.5606,4.5603,4.5609,4.5607,4.5582,4.5582,4.5572,4.5572,4.557,4.557,4.5534,4.5533,4.5523,0,0,0,4.5622,4.5619,4.5616,4.5614,4.5604,4.5593,4.5604,4.5584,4.5581,4.5572,4.557,4.557,4.5534,4.5533,4.5524,4.5517,0,0,0,4.5624,4.5619,4.5617,4.5614,4.5607,4.5593,4.5592,4.5583,4.5581,4.5571,4.5569,4.5534,4.5533,4.5524,4.5518,4.5508,0,0,0,4.5623,4.5605,4.5617,4.5597,4.5607,4.5588,4.5592,4.5577,4.5567,4.557,4.5534,4.5533,4.5525,4.5519,4.5509,4.5498,4.5494,0,0,4.5599,4.5602,4.5591,4.5601,4.5579,4.5591,4.5568,4.5558,4.5558,4.5541,4.554,4.5523,4.5518,4.5508,4.5473,4.5469,0,0,0,4.5582,4.5574,4.5569,4.5561,4.5556,4.5552,4.5547,4.5545,4.5532,4.5549,4.5517,4.5514,4.5508,4.5503,4.55,4.5496,4.5531,4.5531,4.5531,4.5542,4.5546,4.5528,4.5531,4.5523,4.5522,4.5516,4.5512,4.5514,4.5507,4.5501,4.548,4.5474,4.5472,4.5467,4.5497,4.5497,4.5497,4.5497,4.5506,4.5495,4.5506,4.5491,4.5496,4.5483,4.5482,4.5486,4.5474,4.5483,4.5478,4.5487,4.5468,4.5464,4.5496,4.5496,4.5497,4.5497,4.5497,4.5479,4.5475,4.5475,4.5467,4.546,4.5464,4.5454,4.5458,4.5461,4.5456,4.5451,4.5451,4.5452,4.5454,4.5454,4.5454,4.5454,4.5454,4.5454,4.5451,4.5452,4.5444,4.5441,4.5439,4.5436,4.5437,4.5434,4.5431,4.5435,4.5435,4.5439,4.5467,4.5473,4.5452,4.5453,4.5453,4.5453,4.5453,4.5411,4.5422,4.541,4.5408,4.5407,4.5401,4.5408,4.5403,4.5401,4.5396,4.5403,4.5423,4.5425,4.5428,4.5433,4.5403,4.5403,4.5403,4.5403,4.5387,4.5391,4.5382,4.5379,4.5376,4.5383,4.537,4.5372,4.5375,4.5375,4.538,4.5388,4.539,4.5391,4.5394,4.5399,4.5361,4.5361,4.5361,4.5363,4.5367,4.5355,4.5362,4.5363,4.5363,4.5352,4.5347,4.5353,4.5359,4.5374,4.5376,4.5389,4.5393,4.5396,4.5401,4.541,0,0]}]]